506  
ASUS45 KCYS 190410  
RWRWY  
 
WYOMING REGIONAL WEATHER ROUNDUP  
NATIONAL WEATHER SERVICE CHEYENNE WY  
1000 PM MDT MON MAR 18 2019  
 
NOTE: "FAIR" INDICATES FEW OR NO CLOUDS BELOW 12,000 FEET  
WITH NO SIGNIFICANT WEATHER AND/OR S TO VISIBILITY
.  
 
WYZ001-190500-   
..YELLOWSTONE NATIONAL PARK
 
 
 
CITY SKY/WX TMP DP RH WIND PRES REMARKS
 
LK YELLOWSTONE N/A 27 12 53 VRB6 30.26R WCI 20  
W YELLOWSTONE NOT AVBL  
 

 
WYZ002>013-054>058-071-098>099-190500-   
..NORTHERN WYOMING
 
 
 
CITY SKY/WX TMP DP RH WIND PRES REMARKS
 
JACKSON CLEAR 19 12 74 NE5 30.22R WCI 12  
CODY NOT AVBL  
GREYBULL PTCLDY 41 19 41 NW14 30.21R  
WORLAND PTCLDY 37 21 52 NE3 30.21R  
SHERIDAN CLEAR 32 23 69 NE6 30.22R WCI 26  
BUFFALO CLEAR 34 20 56 N3 30.19R  
GILLETTE CLEAR 32 25 75 W14 30.18R WCI 22  
HULETT FAIR 36 23 60 W5 30.17R WCI 32  
NEWCASTLE MOCLDY 32 27 80 CALM 30.17S  
 

 
WYZ014>020-022>026-101>103-190500-   
..CENTRAL WYOMING
 
 
 
CITY SKY/WX TMP DP RH WIND PRES REMARKS
 
BIG PINEY CLEAR 15 11 83 E3 30.25R  
PINEDALE PTCLDY 9 5 85 NW3 30.25S  
DUBOIS FAIR 27 18 69 CALM 30.21R  
LANDER CLOUDY 36 22 56 W8 30.22R WCI 30  
RIVERTON CLOUDY 38 22 52 N8 30.23R WCI 32  
CASPER CLEAR 31 25 78 W5 30.20R WCI 26  
DOUGLAS CLEAR 28 26 92 NW7 30.20S WCI 21  
 

 
WYZ021-027>030-104>119-190500-   
..SOUTHERN WYOMING
 
 
 
CITY SKY/WX TMP DP RH WIND PRES REMARKS
 
EVANSTON PTCLDY 26 15 63 N6 30.23R WCI 19  
KEMMERER CLEAR 23 16 74 CALM 30.23R  
FORT BRIDGER FAIR 25 19 80 CALM 30.26R  
ROCK SPRINGS CLEAR 24 20 84 S3 30.22R  
DIXON FAIR 23 15 70 E3 30.24S  
RAWLINS CLEAR 21 17 84 CALM 30.22R  
SARATOGA FAIR 19 19 100 CALM 30.22S  
LARAMIE PTCLDY 22 18 85 CALM 30.19R  
CHEYENNE MOCLDY 32 27 81 NW7 30.18R WCI 26  
TORRINGTON PTCLDY 32 28 85 CALM 30.18R  
PINE BLUFFS FAIR 32 28 86 NW6 30.19R WCI 26  
 

 
 
 
CLICK HERE TO GO TO PREVIOUS BULLETINS.

The Nexlab WY Page Main Text Page